Location: Barruelo
(41.2448°N, 3.8231°W)
Time: 20:03:07
(UTC+00:00)

Cosmos 1937 Rocket - Pass Details

Date: 11 December 2025
Orbit: 743 x 775 km, 74.0° (Epoch: 12 January)

Event Time Altitude Azimuth Distance (km) Brightness Sun altitude
Rises 18:38:49 0° 190° (S) 3,204 7.0 -20.4°
Reaches altitude 10° 18:41:12 10° 187° (S) 2,278 6.2 -20.8°
Maximum altitude 18:46:18 66° 106° (ESE) 820 3.4 -21.8°
Enters shadow 18:47:36 48° 46° (NE) 983 3.7 -22.0°
